STARLINK-1917 (46767 NORAD) Tracking and Keplerian Element Data
This shows tracking and keplerian element data for the satellite.
Feedback or suggestion? Click here.
Element | Value |
Catalog | 46767 |
Name | STARLINK-1917 |
Epoch Orbit | 1409 |
Epoch Day | 21.16668981 |
Epoch Year | 2021 |
RAAN | 107.1808 |
Inclination | 53.0556 |
Eccentricity | 0.0001477 |
Argument of Perigee | 105.4751 |
Mean Anonmoly | 263.4863 |
Mean Motion | 15.063763 |
Decay Rate | 0.00040223 |
L1 | 1 46767U 20074AE 21021.16668981 .00040223 00000-0 27056-2 0 9997 |
L2 | 2 46767 53.0556 107.1808 0001477 105.4751 263.4863 15.06376300 14090 |
Live tracking and technical data element details for STARLINK-1917 (NORAD 46767). STARLINK-1917 can be tracked NOW for your location showing map with azimuth and elevation plus other details from your city location.
Track the satellite on the map from your city or location and see movement details for azimuth, elevation, latitude, longitude, range, height, and movement on the map or in text.
IsCatalogInMostPopularTable: catalog: 46767, numindb: 33
Update: records affected: 1
GetName: 46767 STARLINK-1917
Hit Count: updated at: Fri, 22 Jan 2021 19:45:21 GMT